Probability
0 0 0 0 0 0 0 0 0 0 0 0 0 0 0 0 0 0 0 0 0 0 0 1 1 1 1 1 0 0 0 0 0 0 0 0 0 0 0 0 0 0 0
0 0 0 0 0 0 0 0 0 0 0 0 0 0 0 0 0 0 0 0 0 0 0 1 1 1 0 0 0 0 0 0 0 0 0 0 0 0 0 0 0 0 0
0 0 0 0 0 0 0 0 0 0 0 0 0 0 0 0 0 0 0 0 0 0 0 1 1 0 0 0 0 0 0 0 0 0 0 0 0 0 0 0 0 0 0
0 2 3 2 1 1 0 0 0 0 0 0 0 0 0 0 0 0 0 0 0 0 0 0 0 0 0 0 0 0 0 0 0 0 0 0 0 0 0 0 0 0 0
2 6 8 4 1 2 1 1 1 1 0 0 0 0 0 0 0 0 0 0 0 0 0 0 0 0 0 0 0 0 0 0 0 0 0 0 0 0 0 0 0 0 0
9 13 12 7 3 2 2 1 2 1 0 0 0 0 0 0 0 0 0 0 0 0 0 0 0 0 0 0 0 0 0 0 0 0 0 0 0 0 0 0 0 0 0
22 21 18 12 8 4 2 1 1 1 0 0 0 0 0 0 0 0 0 0 0 0 0 0 0 0 0 0 0 0 0 0 0 0 0 0 0 0 0 0 0 0 0
30 27 23 18 12 5 1 0 0 0 0 0 0 0 0 0 0 0 0 0 0 0 0 0 0 0 0 0 0 0 0 0 0 0 0 0 0 0 0 0 0 0 0
30 27 24 18 11 6 2 1 1 0 0 0 0 0 0 0 0 0 0 0 0 0 0 0 1 0 0 0 0 0 0 0 0 0 0 0 0 0 0 0 0 0 0
27 26 23 17 10 6 3 2 1 0 0 0 0 0 0 0 0 0 0 0 0 0 0 0 0 0 0 0 0 0 0 0 0 0 0 0 0 0 0 0 0 0 0
23 24 23 19 13 8 4 1 1 0 0 0 0 0 0 0 0 0 0 0 0 0 0 0 0 0 0 0 0 0 0 0 0 0 0 0 0 0 0 0 0 0 0
16 17 20 19 14 9 4 2 0 0 0 0 0 0 0 0 0 0 0 0 0 0 0 0 0 0 0 0 0 0 0 0 0 0 0 0 0 0 0 0 0 0 0
7 9 11 12 10 7 4 2 0 0 0 0 0 0 0 0 0 0 0 0 0 0 0 0 0 0 0 0 0 0 0 0 0 0 0 0 0 0 0 0 0 0 0
1 2 3 4 5 4 3 1 0 0 0 0 0 0 0 0 0 0 0 0 0 0 0 0 0 0 0 0 0 0 0 0 0 0 0 0 0 0 0 0 0 0 0
0 0 0 1 2 2 1 0 0 0 0 0 0 0 0 0 0 0 0 0 0 0 0 0 0 0 0 0 0 0 0 0 0 0 0 0 0 0 0 0 0 0 0
0 0 0 0 1 1 0 0 0 0 0 0 0 0 0 0 0 0 0 0 0 0 0 0 0 0 0 0 0 0 0 0 0 0 0 0 0 0 0 0 0 0 0
0 0 0 0 0 0 0 0 0 0 0 0 0 0 0 0 0 0 0 0 0 0 0 0 0 0 0 0 0 0 0 0 0 0 0 0 0 0 0 0 0 0 0
0 0 0 0 0 0 0 0 0 0 0 0 0 0 0 0 0 0 0 0 0 0 0 0 0 0 0 0 0 0 0 0 0 0 0 0 0 0 0 0 0 0 0
0 0 0 0 0 0 0 0 0 0 0 0 0 0 0 0 0 0 0 0 0 0 0 0 0 0 0 0 0 0 0 0 0 0 0 0 0 0 0 0 0 0 0
0 0 0 0 0 0 0 0 0 0 0 0 0 0 0 0 0 0 0 0 0 0 0 0 0 0 0 0 0 0 0 0 0 0 0 0 0 0 0 0 0 0 0
0 0 0 0 0 0 0 0 0 0 0 0 0 0 0 0 0 0 0 0 0 0 0 0 0 0 0 0 0 0 0 0 0 0 0 0 0 0 0 0 0 0 0
0 0 0 0 0 0 0 0 0 0 0 0 0 0 0 0 0 0 0 0 0 0 0 0 0 0 0 0 0 0 0 0 0 0 0 0 0 0 0 0 0 0 0
0 0 0 0 0 0 0 0 0 0 0 0 0 0 0 0 0 0 0 0 0 0 0 0 0 0 0 0 0 0 0 0 0 0 0 0 0 0 0 0 0 0 0
0 0 0 0 0 0 0 0 0 0 0 0 0 0 0 0 0 0 0 0 0 0 0 0 0 0 0 0 0 0 0 0 0 0 0 0 0 0 0 0 0 0 0
0 0 0 0 0 0 0 0 0 0 0 0 0 0 0 0 0 0 0 0 0 0 0 0 0 0 0 0 0 0 0 0 0 0 0 0 0 0 0 0 0 0 0
0 0 0 0 0 0 0 0 0 0 0 0 0 0 0 0 0 0 0 0 0 0 0 0 0 0 0 0 0 0 0 0 0 0 0 0 0 0 0 0 0 0 0
Wind_Speed
3 3 3 4 4 4 3 3 3 2 0 2 3 4 3 4 4 6 5 7 6 5 5 5 5 5 5 5 5 5 5 5 5 5 4 4 3 3 2 2 2 2 2
3 3 2 3 2 2 4 3 2 2 1 3 4 3 2 3 4 6 6 5 6 5 5 5 5 5 5 4 5 5 5 5 4 4 4 3 3 2 2 1 1 1 0
5 4 2 3 2 2 3 1 1 1 2 3 2 1 2 2 2 5 7 5 5 5 6 6 5 5 4 4 5 4 4 4 4 3 3 3 3 2 2 2 2 1 1
5 4 3 3 3 2 1 2 2 1 1 1 2 1 2 1 1 2 4 6 5 5 5 7 6 5 4 5 5 4 4 4 3 3 2 2 2 2 2 2 2 2 2
5 4 3 1 2 2 1 1 1 0 1 1 1 1 1 2 1 2 3 5 6 6 5 6 7 6 5 5 5 4 4 4 3 2 2 2 2 2 3 3 3 3 3
3 4 3 2 1 2 2 1 0 1 1 0 1 1 1 1 2 1 1 2 4 7 7 7 5 5 6 6 5 4 4 4 3 2 2 2 2 2 3 3 4 4 4
3 3 3 2 2 2 1 1 0 0 0 0 1 2 2 2 3 3 2 2 3 5 5 7 5 5 4 6 6 6 5 3 3 2 2 1 1 2 2 3 4 4 4
3 2 3 2 2 2 1 2 2 1 1 1 1 1 1 3 3 3 3 3 2 4 4 6 6 6 6 4 5 7 5 4 3 2 1 1 1 1 2 3 4 4 4
3 2 2 2 2 2 3 4 4 4 3 3 2 3 3 3 2 3 4 4 4 3 4 3 6 7 7 7 6 6 6 4 3 2 1 1 1 1 2 2 3 3 3
2 2 1 1 1 2 4 5 6 5 5 4 3 3 4 3 2 2 2 2 4 4 4 3 2 3 6 7 8 10 9 6 4 3 2 1 0 1 1 2 2 2 3
2 2 2 1 2 2 4 5 5 5 5 5 4 3 4 3 3 2 2 2 1 2 2 3 3 2 4 7 7 10 11 8 6 4 3 2 1 1 1 1 2 2 3
1 1 1 2 3 3 4 5 5 5 5 5 4 4 3 3 3 3 3 3 2 2 2 2 2 3 4 6 8 14 13 10 8 6 4 3 2 2 2 2 1 1 1
1 2 2 2 3 4 4 4 4 4 5 5 5 4 3 3 2 2 2 3 3 2 2 2 3 3 4 4 6 15 13 12 10 8 6 4 3 2 2 2 2 2 1
3 4 4 4 4 4 4 3 2 2 3 3 4 3 3 3 3 3 3 2 2 2 2 4 2 3 4 4 8 15 9 13 12 10 8 6 5 4 2 2 1 1 1
3 4 4 4 4 3 2 1 2 2 2 1 1 2 2 2 2 2 3 3 3 3 3 4 2 2 2 3 9 8 7 14 14 12 10 9 7 5 4 3 2 1 0
1 2 3 3 4 3 3 2 1 1 1 1 1 2 2 1 1 2 2 2 3 3 3 2 3 2 1 1 7 6 6 15 17 15 13 11 9 8 6 5 4 3 2
2 3 3 2 2 3 3 3 2 2 1 1 2 2 2 2 2 2 2 2 2 3 3 3 2 2 1 1 2 3 2 6 8 15 14 13 11 10 9 8 7 5 4
3 3 2 1 1 2 2 2 2 3 2 2 2 2 2 1 2 2 2 3 2 3 3 3 2 2 2 2 2 2 2 4 5 13 16 14 13 12 10 10 9 8 7
2 1 0 1 2 1 1 1 2 2 2 2 2 2 2 2 1 2 2 2 2 2 2 2 2 1 1 1 1 2 3 2 3 8 13 13 13 12 12 11 11 10 9
4 4 2 1 1 1 0 0 1 1 1 1 1 1 1 2 2 1 0 0 1 1 1 1 2 1 1 0 0 1 2 2 2 2 5 7 10 13 13 12 12 12 12
7 6 5 4 4 3 5 5 4 3 2 1 0 2 4 6 5 3 2 2 1 0 0 1 1 0 1 1 1 1 2 1 1 0 1 3 4 5 7 11 14 14 13
7 7 7 6 6 6 9 9 6 5 4 2 1 1 5 5 5 4 3 3 2 2 1 1 0 0 1 2 1 1 1 1 1 1 1 2 2 3 4 5 9 13 15
7 7 7 7 6 7 9 9 8 5 5 4 3 1 1 3 4 3 4 4 2 2 1 1 1 0 0 2 2 1 2 2 2 1 1 2 1 2 2 3 6 10 13
6 6 6 6 5 7 10 9 8 4 4 4 3 2 1 3 3 3 1 1 3 3 3 1 1 2 2 1 2 2 2 1 0 0 1 1 1 2 2 2 4 5 8
5 5 5 5 5 6 10 10 8 3 3 3 2 4 4 5 6 6 3 2 2 1 2 3 3 3 2 2 2 1 1 0 1 1 1 1 1 1 2 2 2 3 4
5 4 4 5 5 6 9 11 10 3 3 2 2 4 7 6 6 6 4 3 3 2 1 1 1 0 1 1 1 0 0 0 0 1 1 1 1 1 2 2 1 0 1
Wind_Direction
214 175 182 166 187 176 169 226 240 160 53 47 46 56 76 87 91 106 117 114 108 107 116 120 124 124 125 128 132 136 139 139 142 144 145 145 145 141 137 128 116 93 56
204 156 202 140 201 174 174 204 203 137 144 83 62 48 43 91 95 120 133 127 121 116 114 120 123 128 132 133 133 138 142 143 146 152 157 164 170 171 170 165 154 145 48
189 157 194 146 203 201 190 204 146 125 126 121 128 159 90 64 145 140 138 146 141 125 121 120 120 124 130 138 141 142 145 146 150 163 174 183 191 200 204 212 222 235 259
185 160 162 153 193 184 161 105 51 32 99 125 149 166 122 107 293 113 149 154 152 142 130 127 123 121 121 130 136 139 143 141 146 156 175 190 200 212 218 227 243 247 257
169 142 140 152 193 144 114 126 155 187 99 110 128 132 145 162 150 223 182 153 143 145 142 138 135 129 125 128 132 137 144 145 149 161 178 194 213 227 234 237 244 250 258
140 126 129 140 66 88 76 21 108 105 78 110 272 178 172 191 212 257 342 121 154 154 153 155 153 148 144 138 134 137 145 150 152 161 179 192 218 235 244 251 254 253 255
93 109 124 125 103 100 126 267 294 153 186 245 20 7 333 285 244 180 210 228 184 144 152 165 170 160 157 152 146 146 149 152 155 144 149 180 220 233 248 261 262 262 256
98 106 116 127 132 129 169 241 262 211 233 217 157 138 295 302 287 224 191 204 219 161 191 185 169 164 167 158 159 150 145 151 154 151 154 170 234 243 254 265 266 267 264
106 99 117 141 168 174 196 225 232 216 214 235 213 170 183 223 259 271 215 196 207 184 197 197 181 178 169 151 150 150 146 149 173 176 174 194 247 256 260 269 268 271 276
119 124 127 174 192 198 205 219 223 215 206 218 230 219 214 198 183 264 293 229 203 199 196 201 200 188 156 142 152 157 159 162 177 189 188 187 226 269 278 259 261 276 283
110 122 127 201 231 225 225 226 231 220 210 212 215 216 230 245 229 199 246 281 275 233 203 192 189 198 151 145 151 164 166 171 184 195 205 224 268 279 294 278 267 277 281
94 84 137 217 230 227 231 231 229 223 214 214 217 216 207 210 215 212 216 231 243 259 235 208 199 187 169 157 170 165 170 174 182 193 205 219 251 276 280 289 282 304 335
160 202 214 224 231 229 229 223 214 221 220 215 214 215 214 219 214 208 215 226 232 255 253 234 211 193 181 161 159 166 176 177 184 193 200 206 217 246 274 269 280 296 333
186 204 211 222 230 224 228 212 210 220 225 216 220 213 207 222 210 198 200 204 233 246 240 245 236 206 194 175 172 174 180 184 188 195 199 200 206 217 234 234 262 304 351
205 210 218 207 212 208 222 192 193 208 217 220 231 232 214 220 214 211 205 190 191 217 239 233 235 230 207 181 167 183 177 191 192 195 198 199 202 206 212 214 208 206 339
246 221 221 209 193 176 184 163 190 150 196 195 189 248 235 220 216 212 209 209 197 199 235 238 221 231 200 165 173 194 200 189 193 194 196 199 201 204 208 209 209 210 221
271 263 249 230 178 165 166 156 184 159 217 224 198 215 225 210 193 209 210 213 209 196 223 253 238 232 217 183 175 235 198 172 190 197 197 199 201 203 208 214 218 220 224
260 257 259 251 146 130 146 153 164 160 194 215 214 207 212 197 203 211 212 220 216 206 209 244 252 229 227 213 198 230 212 192 189 199 200 201 204 206 211 216 220 223 226
310 301 296 82 94 103 126 144 172 189 200 205 201 206 198 173 203 204 209 214 219 224 206 220 245 230 215 220 219 244 246 243 216 192 198 204 208 211 214 219 222 224 227
357 359 1 12 93 135 121 261 239 203 218 197 205 191 124 106 77 48 169 204 206 214 206 208 225 221 201 221 182 236 259 253 249 194 193 201 210 216 221 223 226 226 226
6 3 4 13 26 31 30 23 2 356 348 12 315 89 95 99 93 76 64 35 27 46 150 177 206 169 191 201 218 208 235 258 270 218 196 207 204 212 220 229 232 231 228
11 6 12 23 27 33 31 26 9 349 338 331 315 143 146 147 142 142 137 118 81 58 48 48 87 201 229 207 194 192 199 195 267 265 185 239 203 221 225 219 225 226 227
21 16 18 23 33 36 23 13 5 338 320 323 324 323 122 122 152 170 182 187 182 175 148 57 45 19 221 193 171 194 207 205 223 225 133 270 266 256 263 262 248 225 225
22 21 21 18 25 28 17 5 351 316 300 303 314 340 45 90 63 46 68 198 172 174 189 179 70 71 74 105 152 174 190 189 179 18 137 245 267 265 280 291 283 245 229
16 20 21 18 20 25 16 6 353 309 301 308 348 32 53 73 58 37 9 13 61 109 140 117 96 105 110 96 98 92 95 126 280 249 174 223 280 289 292 288 284 250 240
11 16 21 22 28 26 20 15 6 342 339 347 31 64 63 71 56 35 14 26 41 12 34 117 109 136 209 197 181 177 176 183 302 302 173 179 311 343 325 317 329 251 251